sat.trackr.live / text

‹ back to catalog

STARLINK-33830

NORAD 63587 · 2025-076U

PAYLOAD ACTIVE UNKNOWN

§ Identity

Operator
Country
US
Launch date
2025-04-14
Launch site
AFETR
Launch vehicle
Mass (kg)
RCS (m²)

Purposes: comms

External: N2YO · Heavens-Above · Gunter

§ Orbital elements

Epoch: 2026-09-20T04:04:32.136096Z

Period
94.27 min
Inclination
43.0009°
Eccentricity
0.0001049
Mean motion
15.27584482 rev/d
Perigee alt
482.3 km
Apogee alt
483.8 km
Semi-major
6,861.2 km
B*
4.2218e-4
RAAN
303.3635°
Arg perigee
247.6942°
Mean anomaly
112.3799°
Rev number
8,157

§ Raw data

STARLINK-338301 63587U 25076U   26263.16981639  .00011375  00000+0  42218-3 0  99972 63587  43.0009 303.3635 0001049 247.6942 112.3799 15.27584482 81577

JSON: /api/v1/satellites/63587 · /tle

For live sub-satellite position, see the globe view (requires WebGL).

§ Visibility from observer

Set your observer location to see the next 7 days of passes ≥ 10°. The values pass through the URL so the page stays shareable.

No JS? Fill the form by hand. The geolocation button needs JavaScript.